Crystal River Weather Center

Moon Phase Calendar



Online Cameras

 


      

Current Conditions in Crystal River
5/13/2021 2:58:14 PM

70°F
Feels Like 71
Clouds
Humidity
85%
Pressure
30.09"
Wind
8 mph (NE)
Dew Point
65°F
UV Index
9/10 (Very High)
Visibility
6 mi

Hourly Forecast

Date & Time Thu, May 13
2:00 PM
Thu, May 13
3:00 PM
Thu, May 13
4:00 PM
Thu, May 13
5:00 PM
Thu, May 13
6:00 PM
Thu, May 13
7:00 PM
Thu, May 13
8:00 PM
Thu, May 13
9:00 PM
Thu, May 13
10:00 PM
Thu, May 13
11:00 PM
Fri, May 14
12:00 AM
Fri, May 14
1:00 AM
Fri, May 14
2:00 AM
Fri, May 14
3:00 AM
Fri, May 14
4:00 AM
Fri, May 14
5:00 AM
Fri, May 14
6:00 AM
Fri, May 14
7:00 AM
Fri, May 14
8:00 AM
Fri, May 14
9:00 AM
Fri, May 14
10:00 AM
Fri, May 14
11:00 AM
Fri, May 14
12:00 PM
Fri, May 14
1:00 PM
Fri, May 14
2:00 PM
Fri, May 14
3:00 PM
Fri, May 14
4:00 PM
Fri, May 14
5:00 PM
Fri, May 14
6:00 PM
Fri, May 14
7:00 PM
Fri, May 14
8:00 PM
Fri, May 14
9:00 PM
Fri, May 14
10:00 PM
Fri, May 14
11:00 PM
Sat, May 15
12:00 AM
Sat, May 15
1:00 AM
Sat, May 15
2:00 AM
Sat, May 15
3:00 AM
Sat, May 15
4:00 AM
Sat, May 15
5:00 AM
Sat, May 15
6:00 AM
Sat, May 15
7:00 AM
Sat, May 15
8:00 AM
Sat, May 15
9:00 AM
Sat, May 15
10:00 AM
Sat, May 15
11:00 AM
Sat, May 15
12:00 PM
Sat, May 15
1:00 PM
Condition
Rain

Clouds

Clouds

Clouds

Clouds

Clouds

Clouds

Clouds

Clouds

Clouds

Clouds

Clouds

Clouds

Clouds

Clouds

Clouds

Clouds

Clouds

Clouds

Clear

Clear

Clear

Clear

Clear

Clear

Clear

Clear

Clear

Clear

Clear

Clear

Clouds

Clouds

Clouds

Clouds

Clouds

Clouds

Clouds

Clouds

Clouds

Clouds

Clouds

Clouds

Clouds

Clouds

Clouds

Clouds

Clouds
Temperature 69°F70°F70°F71°F72°F72°F72°F70°F69°F68°F66°F66°F66°F65°F64°F63°F62°F62°F65°F68°F72°F74°F77°F79°F81°F82°F83°F83°F82°F79°F75°F74°F71°F69°F68°F67°F66°F65°F65°F64°F64°F64°F67°F70°F73°F76°F79°F82°F
Feels Like 70°F71°F71°F72°F73°F73°F72°F70°F69°F67°F66°F66°F65°F65°F64°F63°F62°F62°F64°F68°F71°F74°F76°F79°F80°F81°F82°F82°F81°F79°F75°F74°F71°F69°F67°F66°F66°F65°F64°F64°F64°F64°F66°F70°F73°F76°F79°F81°F
Cloudiness 92%90%92%94%96%98%100%100%100%100%100%100%100%100%100%84%74%60%51%0%0%0%0%0%0%0%0%1%0%2%8%80%62%41%31%25%21%11%31%36%36%38%34%43%71%62%60%49%
Visibility 6 mi6 mi6 mi6 mi6 mi6 mi6 mi6 mi6 mi6 mi6 mi6 mi6 mi6 mi6 mi6 mi6 mi6 mi6 mi6 mi6 mi6 mi6 mi6 mi6 mi6 mi6 mi6 mi6 mi6 mi6 mi6 mi6 mi6 mi6 mi6 mi6 mi6 mi6 mi6 mi6 mi6 mi6 mi6 mi6 mi6 mi6 mi6 mi
Precipitation 97%15%15%8%7%3%3%8%0%0%0%0%0%0%0%0%0%0%0%0%0%0%0%0%0%0%0%0%0%0%0%0%0%0%0%0%0%0%0%0%0%0%0%0%0%0%0%0%
Humidity 87%85%84%79%75%73%71%69%70%73%75%75%75%77%79%80%80%80%75%67%59%52%46%42%39%37%37%38%41%48%51%53%62%68%72%75%77%79%80%81%81%81%75%66%61%54%45%40%
Dew Point 65°F65°F65°F64°F64°F63°F61°F60°F59°F58°F58°F58°F58°F57°F57°F57°F56°F56°F56°F57°F57°F55°F54°F54°F53°F53°F54°F54°F55°F57°F56°F56°F57°F58°F58°F58°F58°F58°F58°F58°F58°F58°F58°F59°F59°F58°F56°F54°F
Pressure 30.09"30.09"30.09"30.09"30.09"30.09"30.09"30.12"30.15"30.15"30.15"30.15"30.12"30.12"30.12"30.12"30.12"30.15"30.15"30.18"30.18"30.18"30.18"30.15"30.12"30.09"30.09"30.06"30.06"30.09"30.12"30.15"30.15"30.18"30.18"30.15"30.15"30.15"30.15"30.15"30.15"30.18"30.21"30.21"30.21"30.21"30.18"30.18"
Wind Speed 9.6 mph10.4 mph10 mph7.8 mph7.7 mph9.6 mph12.7 mph13.5 mph12.9 mph13 mph12 mph11.2 mph10.5 mph10.8 mph11 mph11.5 mph11.8 mph12.3 mph13.7 mph14.6 mph14.3 mph13.5 mph11.8 mph11.1 mph9.5 mph8.4 mph8.2 mph8.5 mph9.1 mph7.6 mph15.6 mph18 mph17.7 mph15 mph13.2 mph13.7 mph12.1 mph11.9 mph12.4 mph13.2 mph13.8 mph13.4 mph13.8 mph15.2 mph15.7 mph13.9 mph12.1 mph10.2 mph
Wind
Direction
41°
NE
30°
NNE
29°
NNE
24°
NNE
26°
NNE
23°
NNE
28°
NNE
38°
NE
43°
NE
44°
NE
44°
NE
44°
NE
43°
NE
37°
NE
36°
NE
33°
NNE
29°
NNE
30°
NNE
33°
NNE
39°
NE
42°
NE
42°
NE
34°
NE
32°
NNE
23°
NNE
14°
NNE
357°
N
330°
NNW
325°
NW
16°
NNE
71°
ENE
67°
ENE
68°
ENE
67°
ENE
58°
ENE
50°
NE
47°
NE
48°
NE
45°
NE
47°
NE
46°
NE
49°
NE
50°
NE
53°
NE
60°
ENE
60°
ENE
60°
ENE
55°
NE

Daily Forecast

Date High Low Precip. Humidity
Today
May 13

Rain
75 °F
65 °F
98%
89%
Friday
May 14

Clear
83 °F
62 °F
0%
42%
Saturday
May 15

Clouds
83 °F
64 °F
3%
40%
Sunday
May 16

Clouds
83 °F
65 °F
0%
39%
Monday
May 17

Clouds
84 °F
65 °F
0%
40%
Tuesday
May 18

Clear
87 °F
68 °F
9%
40%
Wednesday
May 19

Clear
89 °F
68 °F
0%
41%
Thursday
May 20

Clouds
88 °F
69 °F
18%
42%
Friday
May 21

Clouds
86 °F
70 °F
7%
46%
Saturday
May 22

Clear
85 °F
69 °F
3%
50%
Sunday
May 23

Rain
82 °F
74 °F
94%
67%
Monday
May 24

Rain
86 °F
72 °F
94%
62%
Tuesday
May 25

Rain
79 °F
73 °F
100%
91%
Wednesday
May 26

Rain
79 °F
72 °F
100%
80%
Thursday
May 27

Rain
82 °F
75 °F
95%
70%
Friday
May 28

Rain
81 °F
76 °F
25%
67%

Temperature 8-14 Day Outlook



Precipitation 8-14 Day Outlook




Quick Links
Crystal River News
Crystal River Photos
Crystal River Videos




About Us
Contact Us
Site Map
Search Site
Advertise With Us
   
CrystalRiver.USGulf.info
THE CRYSTAL RIVER WEBSITE

Copyright 2021, Coastal Town
Privacy    |    Legal